TimeMST,TemperatureF,Dew PointF,Humidity,Sea Level PressureIn,VisibilityMPH,Wind Direction,Wind SpeedMPH,Gust SpeedMPH,PrecipitationIn,Events,Conditions,WindDirDegrees,DateUTC
12:15 AM,-4.0,-4.0,100,30.16,10.0,Calm,Calm,-,N/A,,Clear,0,2013-12-07 07:15:00
12:35 AM,-4.0,-9.4,78,30.15,10.0,Calm,Calm,-,N/A,,Partly Cloudy,0,2013-12-07 07:35:00
12:55 AM,-5.8,-7.6,92,30.15,10.0,Calm,Calm,-,N/A,,Partly Cloudy,0,2013-12-07 07:55:00
1:15 AM,-4.0,-5.8,92,30.14,10.0,Calm,Calm,-,N/A,,Partly Cloudy,0,2013-12-07 08:15:00
1:35 AM,-5.8,-7.6,92,30.14,9.0,North,3.5,-,N/A,,Clear,10,2013-12-07 08:35:00
1:55 AM,-5.8,-7.6,92,30.13,9.0,NNE,3.5,-,N/A,,Clear,20,2013-12-07 08:55:00
2:15 AM,-5.8,-9.4,84,30.13,10.0,NE,5.8,-,N/A,,Clear,50,2013-12-07 09:15:00
2:35 AM,-5.8,-9.4,84,30.13,10.0,Calm,Calm,-,N/A,,Clear,0,2013-12-07 09:35:00
2:55 AM,-5.8,-7.6,92,30.13,10.0,North,3.5,-,N/A,,Clear,360,2013-12-07 09:55:00
3:15 AM,-5.8,-11.2,77,30.14,10.0,Calm,Calm,-,N/A,,Partly Cloudy,0,2013-12-07 10:15:00
3:35 AM,-9.4,-16.6,71,30.12,10.0,Calm,Calm,-,N/A,,Scattered Clouds,0,2013-12-07 10:35:00
3:55 AM,-9.4,-9.4,100,30.10,10.0,Calm,Calm,-,N/A,,Partly Cloudy,0,2013-12-07 10:55:00
4:15 AM,-7.6,-14.8,71,30.11,10.0,Calm,Calm,-,N/A,,Clear,0,2013-12-07 11:15:00
4:35 AM,-7.6,-14.8,71,30.11,10.0,Calm,Calm,-,N/A,,Clear,0,2013-12-07 11:35:00
4:55 AM,-5.8,-5.8,100,30.11,10.0,Calm,Calm,-,N/A,,Clear,0,2013-12-07 11:55:00
5:15 AM,-5.8,-13.0,71,30.10,10.0,Calm,Calm,-,N/A,,Clear,0,2013-12-07 12:15:00
5:35 AM,-7.6,-9.4,92,30.10,10.0,North,3.5,-,N/A,,Clear,10,2013-12-07 12:35:00
5:55 AM,-5.8,-7.6,92,30.08,10.0,Calm,Calm,-,N/A,,Clear,0,2013-12-07 12:55:00
6:15 AM,-5.8,-11.2,77,30.08,10.0,NNE,3.5,-,N/A,,Clear,20,2013-12-07 13:15:00
6:35 AM,-5.8,-7.6,92,30.08,10.0,NNE,3.5,-,N/A,,Clear,30,2013-12-07 13:35:00
6:55 AM,-7.6,-11.2,84,30.09,10.0,Calm,Calm,-,N/A,,Clear,0,2013-12-07 13:55:00
7:15 AM,-5.8,-9.4,84,30.08,10.0,Calm,Calm,-,N/A,,Clear,0,2013-12-07 14:15:00
7:35 AM,-5.8,-7.6,92,30.07,8.0,Calm,Calm,-,N/A,,Scattered Clouds,0,2013-12-07 14:35:00
7:55 AM,-5.8,-9.4,84,30.06,8.0,NNE,3.5,-,N/A,,Partly Cloudy,20,2013-12-07 14:55:00
8:15 AM,-2.2,-4.0,92,30.06,9.0,North,5.8,-,N/A,,Clear,10,2013-12-07 15:15:00
8:35 AM,-2.2,-7.6,78,30.06,9.0,Calm,Calm,-,N/A,,Clear,0,2013-12-07 15:35:00
8:55 AM,-0.4,-4.0,85,30.07,9.0,NNE,3.5,-,N/A,,Clear,20,2013-12-07 15:55:00
9:15 AM,-0.4,-2.2,92,30.06,9.0,Calm,Calm,-,N/A,,Clear,0,2013-12-07 16:15:00
9:55 AM,-0.4,-2.2,92,30.05,10.0,Calm,Calm,-,N/A,,Clear,0,2013-12-07 16:55:00
10:15 AM,-0.4,-2.2,92,30.04,10.0,Calm,Calm,-,N/A,,Clear,0,2013-12-07 17:15:00
10:35 AM,1.4,-2.2,85,30.03,10.0,North,3.5,-,N/A,,Clear,10,2013-12-07 17:35:00
10:55 AM,3.2,-0.4,85,30.02,10.0,Calm,Calm,-,N/A,,Clear,0,2013-12-07 17:55:00
11:15 AM,3.2,-0.4,85,30.00,10.0,North,3.5,-,N/A,,Clear,10,2013-12-07 18:15:00
11:35 AM,3.2,-0.4,85,29.99,5.0,Calm,Calm,-,N/A,,Clear,0,2013-12-07 18:35:00
12:15 PM,5.0,-2.2,72,29.95,7.0,North,4.6,-,N/A,,Clear,360,2013-12-07 19:15:00
12:35 PM,6.8,1.4,79,29.93,10.0,Calm,Calm,-,N/A,,Clear,0,2013-12-07 19:35:00
12:55 PM,6.8,-0.4,72,29.92,10.0,Calm,Calm,-,N/A,,Clear,0,2013-12-07 19:55:00
1:15 PM,6.8,-0.4,72,29.90,10.0,Calm,Calm,-,N/A,,Clear,0,2013-12-07 20:15:00
1:35 PM,6.8,-2.2,67,29.89,10.0,North,4.6,-,N/A,,Clear,10,2013-12-07 20:35:00
1:55 PM,8.6,-0.4,67,29.88,10.0,NE,4.6,-,N/A,,Clear,50,2013-12-07 20:55:00
2:15 PM,6.8,-2.2,67,29.87,10.0,ENE,8.1,-,N/A,,Clear,60,2013-12-07 21:15:00
2:35 PM,6.8,-0.4,72,29.86,10.0,NE,5.8,-,N/A,,Clear,40,2013-12-07 21:35:00
2:55 PM,8.6,1.4,73,29.85,10.0,NNE,5.8,-,N/A,,Clear,20,2013-12-07 21:55:00
3:15 PM,6.8,-0.4,72,29.85,10.0,North,5.8,-,N/A,,Clear,10,2013-12-07 22:15:00
3:35 PM,6.8,-0.4,72,29.85,10.0,North,4.6,-,N/A,,Clear,360,2013-12-07 22:35:00
3:55 PM,6.8,-0.4,72,29.85,10.0,North,6.9,-,N/A,,Clear,360,2013-12-07 22:55:00
4:15 PM,6.8,-0.4,72,29.84,10.0,North,5.8,-,N/A,,Clear,350,2013-12-07 23:15:00
4:35 PM,5.0,-0.4,78,29.84,10.0,North,5.8,-,N/A,,Clear,350,2013-12-07 23:35:00
5:15 PM,6.8,-0.4,72,29.83,10.0,NNE,5.8,-,N/A,,Scattered Clouds,20,2013-12-08 00:15:00
5:55 PM,5.0,-0.4,78,29.83,10.0,North,5.8,-,N/A,,Mostly Cloudy,360,2013-12-08 00:55:00
6:15 PM,5.0,-0.4,78,29.83,10.0,North,4.6,-,N/A,,Overcast,350,2013-12-08 01:15:00
6:35 PM,5.0,1.4,85,29.83,10.0,North,3.5,-,N/A,,Overcast,350,2013-12-08 01:35:00
6:55 PM,5.0,-0.4,78,29.83,10.0,North,4.6,-,N/A,,Overcast,350,2013-12-08 01:55:00
7:15 PM,6.8,1.4,79,29.83,10.0,North,5.8,-,N/A,,Overcast,350,2013-12-08 02:15:00
7:35 PM,6.8,1.4,79,29.82,10.0,North,6.9,-,N/A,,Overcast,350,2013-12-08 02:35:00
7:55 PM,6.8,1.4,79,29.82,10.0,North,8.1,-,N/A,,Overcast,360,2013-12-08 02:55:00
8:15 PM,6.8,1.4,79,29.82,8.0,North,9.2,-,N/A,,Mostly Cloudy,360,2013-12-08 03:15:00
8:35 PM,6.8,1.4,79,29.81,8.0,NNE,8.1,-,N/A,,Mostly Cloudy,20,2013-12-08 03:35:00
8:55 PM,6.8,1.4,79,29.81,9.0,NNE,5.8,-,N/A,,Overcast,30,2013-12-08 03:55:00
9:15 PM,6.8,1.4,79,29.80,10.0,North,5.8,-,N/A,,Overcast,360,2013-12-08 04:15:00
9:35 PM,6.8,1.4,79,29.79,10.0,North,5.8,-,N/A,,Mostly Cloudy,10,2013-12-08 04:35:00
9:55 PM,6.8,1.4,79,29.79,10.0,North,5.8,-,N/A,,Overcast,360,2013-12-08 04:55:00
10:15 PM,6.8,3.2,85,29.78,10.0,North,6.9,-,N/A,,Overcast,10,2013-12-08 05:15:00
10:55 PM,6.8,1.4,79,29.76,10.0,NNE,6.9,-,N/A,,Overcast,20,2013-12-08 05:55:00
11:15 PM,6.8,1.4,79,29.76,10.0,NE,4.6,-,N/A,,Overcast,40,2013-12-08 06:15:00
11:35 PM,6.8,3.2,85,29.76,10.0,Calm,Calm,-,N/A,,Overcast,0,2013-12-08 06:35:00
11:55 PM,6.8,1.4,79,29.74,10.0,North,4.6,-,N/A,,Overcast,360,2013-12-08 06:55:00